Weather History for KCRG - March, 2013

Change the Weather History Date:

Friday, March 8, 2013

  Actual Average Record
Temperature  
Mean Temperature 52 °F -  
Max Temperature 64 °F 68 °F 84 °F (1998)
Min Temperature 39 °F 49 °F 36 °F (2001)
Degree Days  
Heating Degree Days 14    
Growing Degree Days 2 (Base 50)    
Moisture  
Dew Point 41 °F    
Average Humidity 70    
Maximum Humidity 89    
Minimum Humidity 37    
Precipitation  
Precipitation 0.00 in - - ()
Sea Level Pressure  
Sea Level Pressure 30.22 in    
Wind  
Wind Speed 3 mph (NNE)    
Max Wind Speed 13 mph    
Max Gust Speed 18 mph    
Visibility 9 miles    
Events      
Averages and records for this station are not official NWS values.
T = Trace of Precipitation, MM = Missing Value Source: NWS Daily Summary

Daily Weather History Graph

Daily Weather History Graph

Search for Another Location

Airport or City:

Trip Planner

Search our weather history database for the weather conditions in past years. The results will help you decide how hot, cold, wet, or windy it might be!

Date:

Astronomy

Mar. 08, 2013 Rise Set
Actual Time 6:43 AM EST 6:29 PM EST
Civil Twilight 6:20 AM EST 6:53 PM EST
Nautical Twilight 5:52 AM EST 7:21 PM EST
Astronomical Twilight 5:24 AM EST 7:49 PM EST
Moon 4:15 AM EST (3/8) 3:33 PM EST (3/8)
Length of Visible Light 12h 33m
Length of Day
11h 45m
Waning Crescent, 12% of the Moon is Illuminated
Mar 8
Waning Crescent
Mar 11
New
Mar 19
First Quarter
Mar 27
Full
Apr 3
Last Quarter

Hourly Weather History & Observations

Time (EST) Temp. Dew Point Humidity Pressure Visibility Wind Dir Wind Speed Gust Speed Precip Events Conditions
12:53 AM 42.1 °F 37.0 °F 82% 30.22 in 10.0 mi Calm Calm - N/A   Clear
1:53 AM 42.1 °F 37.0 °F 82% 30.22 in 9.0 mi Calm Calm - N/A   Clear
2:53 AM 41.0 °F 37.0 °F 86% 30.21 in 10.0 mi Calm Calm - N/A   Clear
3:53 AM 41.0 °F 37.0 °F 86% 30.19 in 10.0 mi Calm Calm - N/A   Clear
4:53 AM 39.9 °F 37.0 °F 89% 30.19 in 7.0 mi Calm Calm - N/A   Clear
5:53 AM 39.0 °F 35.1 °F 86% 30.21 in 10.0 mi Calm Calm - N/A   Clear
6:53 AM 39.9 °F 37.0 °F 89% 30.22 in 7.0 mi Calm Calm - N/A   Clear
7:53 AM 46.9 °F 39.9 °F 77% 30.24 in 10.0 mi WNW 4.6 mph - N/A   Clear
8:53 AM 54.0 °F 41.0 °F 62% 30.24 in 10.0 mi NNW 5.8 mph - N/A   Clear
9:53 AM 59.0 °F 37.0 °F 44% 30.25 in 10.0 mi NNE 8.1 mph - N/A   Clear
10:53 AM 62.1 °F 37.0 °F 39% 30.25 in 10.0 mi NNE 5.8 mph - N/A   Clear
11:53 AM 64.0 °F 37.0 °F 37% 30.25 in 10.0 mi NNW 9.2 mph - N/A   Clear
12:53 PM 64.9 °F 42.1 °F 43% 30.23 in 10.0 mi NE 5.8 mph - N/A   Clear
1:53 PM 64.0 °F 46.9 °F 54% 30.21 in 10.0 mi ENE 11.5 mph - N/A   Clear
2:53 PM 61.0 °F 46.9 °F 60% 30.19 in 10.0 mi ENE 12.7 mph 18.4 mph N/A   Clear
3:53 PM 60.1 °F 46.9 °F 62% 30.19 in 10.0 mi ENE 10.4 mph - N/A   Clear
4:53 PM 59.0 °F 46.0 °F 62% 30.18 in 10.0 mi ENE 10.4 mph - N/A   Clear
5:53 PM 57.9 °F 45.0 °F 62% 30.19 in 10.0 mi East 6.9 mph - N/A   Clear
6:53 PM 54.0 °F 45.0 °F 72% 30.20 in 10.0 mi Calm Calm - N/A   Clear
7:53 PM 51.1 °F 45.0 °F 80% 30.23 in 10.0 mi Calm Calm - N/A   Clear
8:53 PM 48.9 °F 44.1 °F 83% 30.24 in 9.0 mi Calm Calm - N/A   Clear
9:53 PM 48.9 °F 44.1 °F 83% 30.25 in 7.0 mi Calm Calm - N/A   Clear
10:53 PM 46.9 °F 43.0 °F 86% 30.25 in 5.0 mi Calm Calm - N/A   Clear
11:53 PM 46.0 °F 41.0 °F 83% 30.24 in 8.0 mi Calm Calm - N/A   Clear